DW8492 Weather Reports


Display with metric or nautical units.
time (UTC)temp
F
wind
direction
speed
MPH
gust
MPH
rain 1hr
in
rain 24hr
in
rain mn
in
humidity
%
barometer
mb
20260901054535 74 246 0.0 3.0 0.00 0.00 0.00 92 1015.7
20260901053102 74 212 2.0 5.0 0.00 0.00 0.00 92 1015.9
20260901051521 74 197 1.0 4.0 0.00 0.00 0.00 93 1015.8
20260901050051 74 269 0.0 0.0 0.00 0.00 0.00 94 1015.8
20260901044508 74 270 0.0 0.0 0.00 0.00 0.00 94 1015.5
20260901043051 74 269 0.0 0.0 0.00 0.00 0.00 95 1015.6
20260901041523 74 269 0.0 0.0 0.00 0.00 0.00 95 1015.7
20260901040134 73 268 0.0 0.0 0.00 0.00 0.00 95 1015.8
20260901034528 73 268 0.0 0.0 0.00 0.00 0.00 95 1015.6
20260901033101 72 268 0.0 0.0 0.00 0.00 0.00 94 1015.3
20260901031526 72 268 0.0 0.0 0.00 0.00 0.00 94 1015.1
20260901030103 72 268 0.0 0.0 0.00 0.00 0.00 94 1015.1
20260901024510 73 268 0.0 0.0 0.00 0.00 0.00 94 1015.3
20260901023032 73 268 0.0 0.0 0.00 0.00 0.00 93 1015.5
20260901021507 73 268 0.0 0.0 0.00 0.00 0.00 93 1015.6
20260901020038 73 268 0.0 0.0 0.00 0.00 0.00 92 1015.8
20260901014611 74 268 0.0 0.0 0.00 0.00 0.00 92 1016.0
20260901013040 74 268 0.0 0.0 0.00 0.00 0.00 91 1016.0
20260901011502 75 268 0.0 0.0 0.00 0.00 0.00 90 1015.9
20260901010121 75 268 0.0 0.0 0.00 0.00 0.00 89 1015.8
20260901004538 76 268 0.0 0.0 0.00 0.00 0.00 87 1015.7
20260901003008 77 264 0.0 0.0 0.00 0.00 0.00 86 1015.5
20260901001539 77 264 0.0 0.0 0.00 0.00 0.00 83 1015.6
20260901000002 78 264 0.0 0.0 0.00 0.00 0.00 81 1015.5
20260831234538 79 264 0.0 0.0 0.00 0.00 0.00 80 1015.2
20260831233043 80 261 0.0 0.0 0.00 0.00 0.00 79 1015.1
20260831231502 81 261 0.0 0.0 0.00 0.00 0.00 75 1015.4
20260831230027 82 261 0.0 0.0 0.00 0.00 0.00 74 1015.4
20260831224612 83 261 0.0 2.0 0.00 0.00 0.00 73 1015.5
20260831223021 84 187 0.0 0.0 0.00 0.00 0.00 70 1015.7
20260831221600 83 185 0.0 0.0 0.00 0.00 0.00 74 1015.7
20260831220032 82 173 0.0 0.0 0.00 0.00 0.00 74 1015.8
20260831214611 82 173 0.0 2.0 0.00 0.00 0.00 72 1015.8
20260831213022 83 242 0.0 3.0 0.00 0.00 0.00 69 1016.0
20260831211557 84 230 0.0 1.0 0.00 0.00 0.00 67 1015.7
20260831210018 85 223 1.0 4.0 0.00 0.00 0.00 64 1015.8
20260831204609 86 252 1.0 3.0 0.00 0.00 0.00 63 1015.9
20260831203023 85 180 1.0 5.0 0.00 0.00 0.00 67 1016.1
20260831201521 85 295 1.0 3.0 0.00 0.00 0.00 66 1016.3
20260831200104 84 254 1.0 4.0 0.00 0.00 0.00 69 1016.5
20260831194510 82 239 1.0 4.0 0.00 0.00 0.00 71 1016.7
20260831193047 82 250 0.0 3.0 0.00 0.00 0.00 69 1016.7
20260831191518 83 247 1.0 3.0 0.00 0.00 0.00 68 1016.8
20260831190105 83 213 1.0 3.0 0.00 0.00 0.00 67 1016.8
20260831184522 84 223 2.0 4.0 0.00 0.00 0.00 63 1017.0
20260831183108 86 237 2.0 6.0 0.00 0.00 0.00 61 1017.0
20260831181524 86 209 2.0 5.0 0.00 0.00 0.00 60 1016.9
20260831180113 86 212 2.0 6.0 0.00 0.00 0.00 60 1017.1
20260831174634 85 215 2.0 7.0 0.00 0.00 0.00 61 1016.9
20260831173022 85 130 1.0 6.0 0.00 0.00 0.00 64 1017.1
20260831171558 84 202 2.0 5.0 0.00 0.00 0.00 68 1017.2
20260831170110 83 262 1.0 4.0 0.00 0.00 0.00 72 1017.3
20260831164548 82 229 2.0 5.0 0.00 0.00 0.00 74 1017.4
20260831163002 81 191 1.0 4.0 0.00 0.00 0.00 78 1017.4
20260831161556 80 211 0.0 4.0 0.00 0.00 0.00 77 1017.6
20260831160023 79 226 1.0 4.0 0.00 0.00 0.00 82 1018.1
20260831154559 77 258 0.0 2.0 0.00 0.00 0.00 84 1018.0
20260831153058 75 205 1.0 3.0 0.00 0.00 0.00 88 1018.0
20260831151509 73 180 0.0 3.0 0.00 0.00 0.00 91 1018.0
20260831150037 72 167 0.0 3.0 0.00 0.00 0.00 93 1017.9
20260831144524 70 145 0.0 3.0 0.00 0.00 0.00 95 1017.8
20260831143107 69 145 0.0 3.0 0.00 0.00 0.00 96 1017.8
20260831141511 69 144 0.0 0.0 0.00 0.00 0.00 96 1017.9
20260831140055 68 144 0.0 0.0 0.00 0.00 0.00 97 1017.9
20260831134518 68 144 0.0 0.0 0.00 0.00 0.00 97 1017.9
20260831133050 67 140 0.0 0.0 0.00 0.00 0.00 97 1018.0
20260831131509 67 140 0.0 0.0 0.00 0.00 0.00 97 1018.0
20260831130050 66 140 0.0 0.0 0.00 0.00 0.00 97 1018.2
20260831124509 66 140 0.0 0.0 0.00 0.00 0.00 97 1018.2
20260831123044 66 140 0.0 0.0 0.00 0.00 0.00 97 1018.2
20260831121512 66 140 0.0 0.0 0.00 0.00 0.00 97 1018.2
20260831120044 66 140 0.0 0.0 0.00 0.00 0.00 97 1018.1
20260831114637 65 140 0.0 0.0 0.00 0.00 0.00 97 1018.0
20260831113055 65 140 0.0 0.0 0.00 0.00 0.00 97 1018.0
20260831111516 65 140 0.0 0.0 0.00 0.00 0.00 97 1017.9
20260831110055 65 140 0.0 0.0 0.00 0.00 0.00 97 1017.9
20260831104516 65 140 0.0 0.0 0.00 0.00 0.00 97 1017.7
20260831103046 65 140 0.0 0.0 0.00 0.00 0.00 96 1017.7
20260831101524 65 140 0.0 0.0 0.00 0.00 0.00 96 1017.5
20260831100124 65 134 0.0 0.0 0.00 0.00 0.00 96 1017.4
20260831094532 65 134 0.0 0.0 0.00 0.00 0.00 96 1017.4
20260831093109 65 134 0.0 0.0 0.00 0.00 0.00 96 1017.5
20260831091517 65 134 0.0 0.0 0.00 0.00 0.00 96 1017.4
20260831090104 66 134 0.0 0.0 0.00 0.00 0.00 96 1017.4
20260831084532 66 134 0.0 0.0 0.00 0.00 0.00 96 1017.4
20260831083104 66 134 0.0 0.0 0.00 0.00 0.00 96 1017.5
20260831081532 66 134 0.0 0.0 0.00 0.00 0.00 96 1017.2
20260831080110 66 134 0.0 0.0 0.00 0.00 0.00 95 1017.2
20260831074505 65 135 0.0 0.0 0.00 0.00 0.00 95 1017.5
20260831073041 66 134 0.0 0.0 0.00 0.00 0.00 95 1017.5
20260831071507 66 134 0.0 0.0 0.00 0.00 0.00 95 1017.6
20260831070048 66 134 0.0 0.0 0.00 0.00 0.00 95 1017.8
20260831064515 66 134 0.0 0.0 0.00 0.00 0.00 94 1017.8
20260831063042 67 134 0.0 0.0 0.00 0.00 0.00 94 1018.1
20260831060028 67 134 0.0 1.0 0.00 0.00 0.00 93 1018.1
20260831054611 67 134 0.0 0.0 0.00 0.00 0.00 93 1018.3